Year,Month,Day,Hour,Minute,Value (Times are PST for temperature in C)
2021,08,12,00,00,19.30
2021,08,12,00,01,19.30
2021,08,12,00,02,19.30
2021,08,12,00,03,19.30
2021,08,12,00,04,19.30
2021,08,12,00,05,19.30
2021,08,12,00,06,19.30
2021,08,12,00,07,19.20
2021,08,12,00,08,19.20
2021,08,12,00,09,19.20
2021,08,12,00,10,19.20
2021,08,12,00,11,19.20
2021,08,12,00,12,19.20
2021,08,12,00,13,19.20
2021,08,12,00,14,19.20
2021,08,12,00,15,19.20
2021,08,12,00,16,19.20
2021,08,12,00,17,19.20
2021,08,12,00,18,19.10
2021,08,12,00,19,19.10
2021,08,12,00,20,19.10
2021,08,12,00,21,19.00
2021,08,12,00,22,19.00
2021,08,12,00,23,19.00
2021,08,12,00,24,18.90
2021,08,12,00,25,18.90
2021,08,12,00,26,18.90
2021,08,12,00,27,18.80
2021,08,12,00,28,18.80
2021,08,12,00,29,18.80
2021,08,12,00,30,18.70
2021,08,12,00,31,18.70
2021,08,12,00,32,18.60
2021,08,12,00,33,18.60
2021,08,12,00,34,18.60
2021,08,12,00,35,18.50
2021,08,12,00,36,18.50
2021,08,12,00,37,18.40
2021,08,12,00,38,18.40
2021,08,12,00,39,18.40
2021,08,12,00,40,18.30
2021,08,12,00,41,18.30
2021,08,12,00,42,18.30
2021,08,12,00,43,18.30
2021,08,12,00,44,18.20
2021,08,12,00,45,18.20
2021,08,12,00,46,18.20
2021,08,12,00,47,18.20
2021,08,12,00,48,18.10
2021,08,12,00,49,18.10
2021,08,12,00,50,18.10
2021,08,12,00,51,18.10
2021,08,12,00,52,18.10
2021,08,12,00,53,18.10
2021,08,12,00,54,18.00
2021,08,12,00,55,18.00
2021,08,12,00,56,18.00
2021,08,12,00,57,17.90
2021,08,12,00,58,17.90
2021,08,12,00,59,17.90
2021,08,12,01,00,17.80
2021,08,12,01,01,17.80
2021,08,12,01,02,17.80
2021,08,12,01,03,17.80
2021,08,12,01,04,17.70
2021,08,12,01,05,17.70
2021,08,12,01,06,17.60
2021,08,12,01,07,17.60
2021,08,12,01,08,17.60
2021,08,12,01,09,17.50
2021,08,12,01,10,17.50
2021,08,12,01,11,17.40
2021,08,12,01,12,17.40
2021,08,12,01,13,17.40
2021,08,12,01,14,17.30
2021,08,12,01,15,17.30
2021,08,12,01,16,17.30
2021,08,12,01,17,17.20
2021,08,12,01,18,17.20
2021,08,12,01,19,17.10
2021,08,12,01,20,17.10
2021,08,12,01,21,17.10
2021,08,12,01,22,17.00
2021,08,12,01,23,17.00
2021,08,12,01,24,16.90
2021,08,12,01,25,16.90
2021,08,12,01,26,16.80
2021,08,12,01,27,16.80
2021,08,12,01,28,16.80
2021,08,12,01,29,16.80
2021,08,12,01,30,16.80
2021,08,12,01,31,16.80
2021,08,12,01,32,16.80
2021,08,12,01,33,16.80
2021,08,12,01,34,16.80
2021,08,12,01,35,16.90
2021,08,12,01,36,16.90
2021,08,12,01,37,16.90
2021,08,12,01,38,16.90
2021,08,12,01,39,16.90
2021,08,12,01,40,17.00
2021,08,12,01,41,17.00
2021,08,12,01,42,17.00
2021,08,12,01,43,17.00
2021,08,12,01,44,17.10
2021,08,12,01,45,17.10
2021,08,12,01,46,17.10
2021,08,12,01,47,17.10
2021,08,12,01,48,17.20
2021,08,12,01,49,17.20
2021,08,12,01,50,17.20
2021,08,12,01,51,17.20
2021,08,12,01,52,17.30
2021,08,12,01,53,17.30
2021,08,12,01,54,17.30
2021,08,12,01,55,17.30
2021,08,12,01,56,17.30
2021,08,12,01,57,17.30
2021,08,12,01,58,17.20
2021,08,12,01,59,17.20
2021,08,12,02,00,17.20
2021,08,12,02,01,17.30
2021,08,12,02,02,17.30
2021,08,12,02,03,17.30
2021,08,12,02,04,17.20
2021,08,12,02,05,17.20
2021,08,12,02,06,17.20
2021,08,12,02,07,17.20
2021,08,12,02,08,17.20
2021,08,12,02,09,17.20
2021,08,12,02,10,17.20
2021,08,12,02,11,17.20
2021,08,12,02,12,17.20
2021,08,12,02,13,17.20
2021,08,12,02,14,17.20
2021,08,12,02,15,17.20
2021,08,12,02,16,17.20
2021,08,12,02,17,17.20
2021,08,12,02,18,17.20
2021,08,12,02,19,17.10
2021,08,12,02,20,17.10
2021,08,12,02,21,17.10
2021,08,12,02,22,17.10
2021,08,12,02,23,17.10
2021,08,12,02,24,17.10
2021,08,12,02,25,17.10
2021,08,12,02,26,17.10
2021,08,12,02,27,17.00
2021,08,12,02,28,17.00
2021,08,12,02,29,16.90
2021,08,12,02,30,16.90
2021,08,12,02,31,16.90
2021,08,12,02,32,16.90
2021,08,12,02,33,16.80
2021,08,12,02,34,16.80
2021,08,12,02,35,16.80
2021,08,12,02,36,16.80
2021,08,12,02,37,16.80
2021,08,12,02,38,16.80
2021,08,12,02,39,16.80
2021,08,12,02,40,16.80
2021,08,12,02,41,16.80
2021,08,12,02,42,16.80
2021,08,12,02,43,16.80
2021,08,12,02,44,16.80
2021,08,12,02,45,16.90
2021,08,12,02,46,16.90
2021,08,12,02,47,16.90
2021,08,12,02,48,16.90
2021,08,12,02,49,16.90
2021,08,12,02,50,16.90
2021,08,12,02,51,16.90
2021,08,12,02,52,16.90
2021,08,12,02,53,16.90
2021,08,12,02,54,16.90
2021,08,12,02,55,17.00
2021,08,12,02,56,17.00
2021,08,12,02,57,17.00
2021,08,12,02,58,17.00
2021,08,12,02,59,17.00
2021,08,12,03,00,17.00
2021,08,12,03,01,17.00
2021,08,12,03,02,17.00
2021,08,12,03,03,17.00
2021,08,12,03,04,17.00
2021,08,12,03,05,17.10
2021,08,12,03,06,17.10
2021,08,12,03,07,17.10
2021,08,12,03,08,17.10
2021,08,12,03,09,17.10
2021,08,12,03,10,17.10
2021,08,12,03,11,17.10
2021,08,12,03,12,17.10
2021,08,12,03,13,17.10
2021,08,12,03,14,17.10
2021,08,12,03,15,17.10
2021,08,12,03,16,17.20
2021,08,12,03,17,17.20
2021,08,12,03,18,17.20
2021,08,12,03,19,17.20
2021,08,12,03,20,17.20
2021,08,12,03,21,17.20
2021,08,12,03,22,17.30
2021,08,12,03,23,17.30
2021,08,12,03,24,17.30
2021,08,12,03,25,17.30
2021,08,12,03,26,17.30
2021,08,12,03,27,17.30
2021,08,12,03,28,17.20
2021,08,12,03,29,17.20
2021,08,12,03,30,17.20
2021,08,12,03,31,17.20
2021,08,12,03,32,17.20
2021,08,12,03,33,17.20
2021,08,12,03,34,17.20
2021,08,12,03,35,17.20
2021,08,12,03,36,17.20
2021,08,12,03,37,17.20
2021,08,12,03,38,17.20
2021,08,12,03,39,17.20
2021,08,12,03,40,17.20
2021,08,12,03,41,17.20
2021,08,12,03,42,17.20
2021,08,12,03,43,17.20
2021,08,12,03,44,17.20
2021,08,12,03,45,17.20
2021,08,12,03,46,17.20
2021,08,12,03,47,17.20
2021,08,12,03,48,17.20
2021,08,12,03,49,17.20
2021,08,12,03,50,17.20
2021,08,12,03,51,17.20
2021,08,12,03,52,17.20
2021,08,12,03,53,17.10
2021,08,12,03,54,17.10
2021,08,12,03,55,17.10
2021,08,12,03,56,17.10
2021,08,12,03,57,17.10
2021,08,12,03,58,17.10
2021,08,12,03,59,17.10
2021,08,12,04,00,17.10
2021,08,12,04,01,17.10
2021,08,12,04,02,17.10
2021,08,12,04,03,17.00
2021,08,12,04,04,17.00
2021,08,12,04,05,17.00
2021,08,12,04,06,17.00
2021,08,12,04,07,16.90
2021,08,12,04,08,16.90
2021,08,12,04,09,16.90
2021,08,12,04,10,16.90
2021,08,12,04,11,16.80
2021,08,12,04,12,16.80
2021,08,12,04,13,16.80
2021,08,12,04,14,16.80
2021,08,12,04,15,16.80
2021,08,12,04,16,16.80
2021,08,12,04,17,16.80
2021,08,12,04,18,16.80
2021,08,12,04,19,16.80
2021,08,12,04,20,16.80
2021,08,12,04,21,16.70
2021,08,12,04,22,16.70
2021,08,12,04,23,16.70
2021,08,12,04,24,16.70
2021,08,12,04,25,16.70
2021,08,12,04,26,16.70
2021,08,12,04,27,16.70
2021,08,12,04,28,16.70
2021,08,12,04,29,16.60
2021,08,12,04,30,16.60
2021,08,12,04,31,16.60
2021,08,12,04,32,16.60
2021,08,12,04,33,16.50
2021,08,12,04,34,16.50
2021,08,12,04,35,16.50
2021,08,12,04,36,16.40
2021,08,12,04,37,16.40
2021,08,12,04,38,16.40
2021,08,12,04,39,16.40
2021,08,12,04,40,16.30
2021,08,12,04,41,16.30
2021,08,12,04,42,16.30
2021,08,12,04,43,16.30
2021,08,12,04,44,16.30
2021,08,12,04,45,16.20
2021,08,12,04,46,16.20
2021,08,12,04,47,16.20
2021,08,12,04,48,16.20
2021,08,12,04,49,16.20
2021,08,12,04,50,16.20
2021,08,12,04,51,16.10
2021,08,12,04,52,16.10
2021,08,12,04,53,16.10
2021,08,12,04,54,16.10
2021,08,12,04,55,16.10
2021,08,12,04,56,16.10
2021,08,12,04,57,16.10
2021,08,12,04,58,16.10
2021,08,12,04,59,16.10
2021,08,12,05,00,16.10
2021,08,12,05,01,16.10
2021,08,12,05,02,16.10
2021,08,12,05,03,16.10
2021,08,12,05,04,16.10
2021,08,12,05,05,16.10
2021,08,12,05,06,16.10
2021,08,12,05,07,16.10
2021,08,12,05,08,16.10
2021,08,12,05,09,16.10
2021,08,12,05,10,16.10
2021,08,12,05,11,16.10
2021,08,12,05,12,16.10
2021,08,12,05,13,16.10
2021,08,12,05,14,16.10
2021,08,12,05,15,16.10
2021,08,12,05,16,16.10
2021,08,12,05,17,16.10
2021,08,12,05,18,16.10
2021,08,12,05,19,16.20
2021,08,12,05,20,16.20
2021,08,12,05,21,16.20
2021,08,12,05,22,16.20
2021,08,12,05,23,16.20
2021,08,12,05,24,16.20
2021,08,12,05,25,16.20
2021,08,12,05,26,16.20
2021,08,12,05,27,16.20
2021,08,12,05,28,16.20
2021,08,12,05,29,16.20
2021,08,12,05,30,16.20
2021,08,12,05,31,16.20
2021,08,12,05,32,16.10
2021,08,12,05,33,16.10
2021,08,12,05,34,16.10
2021,08,12,05,35,16.10
2021,08,12,05,36,16.10
2021,08,12,05,37,16.00
2021,08,12,05,38,16.00
2021,08,12,05,39,15.90
2021,08,12,05,40,15.90
2021,08,12,05,41,15.90
2021,08,12,05,42,15.90
2021,08,12,05,43,15.80
2021,08,12,05,44,15.80
2021,08,12,05,45,15.80
2021,08,12,05,46,15.80
2021,08,12,05,47,15.70
2021,08,12,05,48,15.70
2021,08,12,05,49,15.70
2021,08,12,05,50,15.70
2021,08,12,05,51,15.70
2021,08,12,05,52,15.70
2021,08,12,05,53,15.60
2021,08,12,05,54,15.60
2021,08,12,05,55,15.60
2021,08,12,05,56,15.70
2021,08,12,05,57,15.70
2021,08,12,05,58,15.60
2021,08,12,05,59,15.60
2021,08,12,06,00,15.60
2021,08,12,06,01,15.60
2021,08,12,06,02,15.60
2021,08,12,06,03,15.60
2021,08,12,06,04,15.60
2021,08,12,06,05,15.60
2021,08,12,06,06,15.60
2021,08,12,06,07,15.60
2021,08,12,06,08,15.50
2021,08,12,06,09,15.50
2021,08,12,06,10,15.50
2021,08,12,06,11,15.50
2021,08,12,06,12,15.50
2021,08,12,06,13,15.50
2021,08,12,06,14,15.50
2021,08,12,06,15,15.50
2021,08,12,06,16,15.40
2021,08,12,06,17,15.40
2021,08,12,06,18,15.40
2021,08,12,06,19,15.40
2021,08,12,06,20,15.40
2021,08,12,06,21,15.40
2021,08,12,06,22,15.40
2021,08,12,06,23,15.40
2021,08,12,06,24,15.40
2021,08,12,06,25,15.40
2021,08,12,06,26,15.40
2021,08,12,06,27,15.40
2021,08,12,06,28,15.50
2021,08,12,06,29,15.50
2021,08,12,06,30,15.50
2021,08,12,06,31,15.50
2021,08,12,06,32,15.50
2021,08,12,06,33,15.50
2021,08,12,06,34,15.50
2021,08,12,06,35,15.50
2021,08,12,06,36,15.50
2021,08,12,06,37,15.50
2021,08,12,06,38,15.50
2021,08,12,06,39,15.40
2021,08,12,06,40,15.50
2021,08,12,06,41,15.50
2021,08,12,06,42,15.50
2021,08,12,06,43,15.50
2021,08,12,06,44,15.50
2021,08,12,06,45,15.50
2021,08,12,06,46,15.50
2021,08,12,06,47,15.50
2021,08,12,06,48,15.50
2021,08,12,06,49,15.50
2021,08,12,06,50,15.50
2021,08,12,06,51,15.40
2021,08,12,06,52,15.40
2021,08,12,06,53,15.40
2021,08,12,06,54,15.40
2021,08,12,06,55,15.40
2021,08,12,06,56,15.40
2021,08,12,06,57,15.40
2021,08,12,06,58,15.40
2021,08,12,06,59,15.40
2021,08,12,07,00,15.50
2021,08,12,07,01,15.50
2021,08,12,07,02,15.50
2021,08,12,07,03,15.50
2021,08,12,07,04,15.50
2021,08,12,07,05,15.50
2021,08,12,07,06,15.50
2021,08,12,07,07,15.50
2021,08,12,07,08,15.50
2021,08,12,07,09,15.50
2021,08,12,07,10,15.50
2021,08,12,07,11,15.60
2021,08,12,07,12,15.60
2021,08,12,07,13,15.60
2021,08,12,07,14,15.60
2021,08,12,07,15,15.60
2021,08,12,07,16,15.60
2021,08,12,07,17,15.60
2021,08,12,07,18,15.70
2021,08,12,07,19,15.70
2021,08,12,07,20,15.70
2021,08,12,07,21,15.70
2021,08,12,07,22,15.80
2021,08,12,07,23,15.80
2021,08,12,07,24,15.80
2021,08,12,07,25,15.80
2021,08,12,07,26,15.80
2021,08,12,07,27,15.80
2021,08,12,07,28,15.80
2021,08,12,07,29,15.80
2021,08,12,07,30,15.80
2021,08,12,07,31,15.80
2021,08,12,07,32,15.80
2021,08,12,07,33,15.80
2021,08,12,07,34,15.80
2021,08,12,07,35,15.80
2021,08,12,07,36,15.80
2021,08,12,07,37,15.80
2021,08,12,07,38,15.80
2021,08,12,07,39,15.80
2021,08,12,07,40,15.80
2021,08,12,07,41,15.80
2021,08,12,07,42,15.80
2021,08,12,07,43,15.80
2021,08,12,07,44,15.80
2021,08,12,07,45,15.80
2021,08,12,07,46,15.80
2021,08,12,07,47,15.80
2021,08,12,07,48,15.80
2021,08,12,07,49,15.90
2021,08,12,07,50,15.90
2021,08,12,07,51,15.90
2021,08,12,07,52,15.90
2021,08,12,07,53,15.90
2021,08,12,07,54,16.00
2021,08,12,07,55,16.00
2021,08,12,07,56,16.00
2021,08,12,07,57,16.00
2021,08,12,07,58,16.10
2021,08,12,07,59,16.10
2021,08,12,08,00,16.10
2021,08,12,08,01,16.20
2021,08,12,08,02,16.20
2021,08,12,08,03,16.30
2021,08,12,08,04,16.30
2021,08,12,08,05,16.30
2021,08,12,08,06,16.40
2021,08,12,08,07,16.40
2021,08,12,08,08,16.40
2021,08,12,08,09,16.50
2021,08,12,08,10,16.50
2021,08,12,08,11,16.50
2021,08,12,08,12,16.60
2021,08,12,08,13,16.60
2021,08,12,08,14,16.70
2021,08,12,08,15,16.80
2021,08,12,08,16,16.80
2021,08,12,08,17,16.90
2021,08,12,08,18,16.90
2021,08,12,08,19,17.00
2021,08,12,08,20,17.10
2021,08,12,08,21,17.10
2021,08,12,08,22,17.20
2021,08,12,08,23,17.30
2021,08,12,08,24,17.30
2021,08,12,08,25,17.40
2021,08,12,08,26,17.40
2021,08,12,08,27,17.50
2021,08,12,08,28,17.50
2021,08,12,08,29,17.60
2021,08,12,08,30,17.60
2021,08,12,08,31,17.70
2021,08,12,08,32,17.70
2021,08,12,08,33,17.80
2021,08,12,08,34,17.90
2021,08,12,08,35,17.90
2021,08,12,08,36,18.00
2021,08,12,08,37,18.10
2021,08,12,08,38,18.20
2021,08,12,08,39,18.30
2021,08,12,08,40,18.40
2021,08,12,08,41,18.40
2021,08,12,08,42,18.50
2021,08,12,08,43,18.50
2021,08,12,08,44,18.60
2021,08,12,08,45,18.70
2021,08,12,08,46,18.70
2021,08,12,08,47,18.70
2021,08,12,08,48,18.80
2021,08,12,08,49,18.80
2021,08,12,08,50,18.90
2021,08,12,08,51,19.00
2021,08,12,08,52,19.00
2021,08,12,08,53,19.10
2021,08,12,08,54,19.10
2021,08,12,08,55,19.20
2021,08,12,08,56,19.20
2021,08,12,08,57,19.20
2021,08,12,08,58,19.30
2021,08,12,08,59,19.30
2021,08,12,09,00,19.30
2021,08,12,09,01,19.30
2021,08,12,09,02,19.30
2021,08,12,09,03,19.30
2021,08,12,09,04,19.30
2021,08,12,09,05,19.40
2021,08,12,09,06,19.40
2021,08,12,09,07,19.40
2021,08,12,09,08,19.40
2021,08,12,09,09,19.50
2021,08,12,09,10,19.50
2021,08,12,09,11,19.60
2021,08,12,09,12,19.60
2021,08,12,09,13,19.70
2021,08,12,09,14,19.70
2021,08,12,09,15,19.70
2021,08,12,09,16,19.80
2021,08,12,09,17,19.80
2021,08,12,09,18,19.80
2021,08,12,09,19,19.90
2021,08,12,09,20,19.90
2021,08,12,09,21,20.00
2021,08,12,09,22,20.10
2021,08,12,09,23,20.20
2021,08,12,09,24,20.30
2021,08,12,09,25,20.40
2021,08,12,09,26,20.50
2021,08,12,09,27,20.60
2021,08,12,09,28,20.70
2021,08,12,09,29,20.80
2021,08,12,09,30,20.90
2021,08,12,09,31,20.90
2021,08,12,09,32,21.00
2021,08,12,09,33,21.10
2021,08,12,09,34,21.10
2021,08,12,09,35,21.20
2021,08,12,09,36,21.20
2021,08,12,09,37,21.20
2021,08,12,09,38,21.30
2021,08,12,09,39,21.30
2021,08,12,09,40,21.40
2021,08,12,09,41,21.50
2021,08,12,09,42,21.60
2021,08,12,09,43,21.70
2021,08,12,09,44,21.70
2021,08,12,09,45,21.80
2021,08,12,09,46,21.90
2021,08,12,09,47,22.00
2021,08,12,09,48,22.00
2021,08,12,09,49,22.10
2021,08,12,09,50,22.20
2021,08,12,09,51,22.30
2021,08,12,09,52,22.30
2021,08,12,09,53,22.40
2021,08,12,09,54,22.50
2021,08,12,09,55,22.60
2021,08,12,09,56,22.70
2021,08,12,09,57,22.70
2021,08,12,09,58,22.70
2021,08,12,09,59,22.80
2021,08,12,10,00,22.80
2021,08,12,10,01,22.90
2021,08,12,10,02,23.00
2021,08,12,10,03,23.00
2021,08,12,10,04,23.10
2021,08,12,10,05,23.20
2021,08,12,10,06,23.30
2021,08,12,10,07,23.40
2021,08,12,10,08,23.40
2021,08,12,10,09,23.50
2021,08,12,10,10,23.60
2021,08,12,10,11,23.70
2021,08,12,10,12,23.70
2021,08,12,10,13,23.80
2021,08,12,10,14,23.80
2021,08,12,10,15,23.90
2021,08,12,10,16,24.00
2021,08,12,10,17,24.10
2021,08,12,10,18,24.20
2021,08,12,10,19,24.20
2021,08,12,10,20,24.30
2021,08,12,10,21,24.30
2021,08,12,10,22,24.40
2021,08,12,10,23,24.50
2021,08,12,10,24,24.50
2021,08,12,10,25,24.60
2021,08,12,10,26,24.60
2021,08,12,10,27,24.70
2021,08,12,10,28,24.80
2021,08,12,10,29,24.90
2021,08,12,10,30,25.00
2021,08,12,10,31,25.00
2021,08,12,10,32,25.00
2021,08,12,10,33,25.00
2021,08,12,10,34,24.90
2021,08,12,10,35,24.90
2021,08,12,10,36,24.80
2021,08,12,10,37,24.90
2021,08,12,10,38,24.90
2021,08,12,10,39,25.00
2021,08,12,10,40,25.10
2021,08,12,10,41,25.20
2021,08,12,10,42,25.30
2021,08,12,10,43,25.40
2021,08,12,10,44,25.40
2021,08,12,10,45,25.40
2021,08,12,10,46,25.50
2021,08,12,10,47,25.50
2021,08,12,10,48,25.60
2021,08,12,10,49,25.60
2021,08,12,10,50,25.60
2021,08,12,10,51,25.60
2021,08,12,10,52,25.70
2021,08,12,10,53,25.70
2021,08,12,10,54,25.70
2021,08,12,10,55,25.80
2021,08,12,10,56,25.80
2021,08,12,10,57,25.80
2021,08,12,10,58,25.90
2021,08,12,10,59,25.90
2021,08,12,11,00,26.10
2021,08,12,11,01,26.20
2021,08,12,11,02,26.20
2021,08,12,11,03,26.30
2021,08,12,11,04,26.40
2021,08,12,11,05,26.50
2021,08,12,11,06,26.60
2021,08,12,11,07,26.60
2021,08,12,11,08,26.70
2021,08,12,11,09,26.70
2021,08,12,11,10,26.80
2021,08,12,11,11,26.80
2021,08,12,11,12,26.80
2021,08,12,11,13,26.80
2021,08,12,11,14,26.90
2021,08,12,11,15,26.90
2021,08,12,11,16,26.90
2021,08,12,11,17,27.00
2021,08,12,11,18,27.00
2021,08,12,11,19,27.00
2021,08,12,11,20,27.10
2021,08,12,11,21,27.20
2021,08,12,11,22,27.20
2021,08,12,11,23,27.20
2021,08,12,11,24,27.40
2021,08,12,11,25,27.40
2021,08,12,11,26,27.40
2021,08,12,11,27,27.40
2021,08,12,11,28,27.50
2021,08,12,11,29,27.50
2021,08,12,11,30,27.60
2021,08,12,11,31,27.70
2021,08,12,11,32,27.70
2021,08,12,11,33,27.80
2021,08,12,11,34,27.90
2021,08,12,11,35,28.00
2021,08,12,11,36,28.10
2021,08,12,11,37,28.20
2021,08,12,11,38,28.30
2021,08,12,11,39,28.40
2021,08,12,11,40,28.40
2021,08,12,11,41,28.50
2021,08,12,11,42,28.50
2021,08,12,11,43,28.60
2021,08,12,11,44,28.60
2021,08,12,11,45,28.70
2021,08,12,11,46,28.70
2021,08,12,11,47,28.70
2021,08,12,11,48,28.70
2021,08,12,11,49,28.80
2021,08,12,11,50,28.80
2021,08,12,11,51,28.90
2021,08,12,11,52,28.90
2021,08,12,11,53,29.00
2021,08,12,11,54,29.10
2021,08,12,11,55,29.20
2021,08,12,11,56,29.30
2021,08,12,11,57,29.40
2021,08,12,11,58,29.50
2021,08,12,11,59,29.50
2021,08,12,12,00,29.60
2021,08,12,12,01,29.60
2021,08,12,12,02,29.60
2021,08,12,12,03,29.60
2021,08,12,12,04,29.60
2021,08,12,12,05,29.70
2021,08,12,12,06,29.70
2021,08,12,12,07,29.80
2021,08,12,12,08,29.80
2021,08,12,12,09,29.90
2021,08,12,12,10,30.00
2021,08,12,12,11,30.00
2021,08,12,12,12,30.10
2021,08,12,12,13,30.10
2021,08,12,12,14,30.20
2021,08,12,12,15,30.10
2021,08,12,12,16,30.00
2021,08,12,12,17,29.90
2021,08,12,12,18,29.80
2021,08,12,12,19,29.80
2021,08,12,12,20,29.80
2021,08,12,12,21,29.70
2021,08,12,12,22,29.80
2021,08,12,12,23,29.80
2021,08,12,12,24,29.90
2021,08,12,12,25,30.10
2021,08,12,12,26,30.20
2021,08,12,12,27,30.40
2021,08,12,12,28,30.50
2021,08,12,12,29,30.70
2021,08,12,12,30,30.80
2021,08,12,12,31,30.90
2021,08,12,12,32,31.10
2021,08,12,12,33,31.20
2021,08,12,12,34,31.30
2021,08,12,12,35,31.40
2021,08,12,12,36,31.40
2021,08,12,12,37,31.40
2021,08,12,12,38,31.40
2021,08,12,12,39,31.40
2021,08,12,12,40,31.50
2021,08,12,12,41,31.50
2021,08,12,12,42,31.60
2021,08,12,12,43,31.60
2021,08,12,12,44,31.60
2021,08,12,12,45,31.60
2021,08,12,12,46,31.70
2021,08,12,12,47,31.80
2021,08,12,12,48,31.80
2021,08,12,12,49,31.80
2021,08,12,12,50,31.80
2021,08,12,12,51,31.70
2021,08,12,12,52,31.60
2021,08,12,12,53,31.40
2021,08,12,12,54,31.30
2021,08,12,12,55,31.20
2021,08,12,12,56,31.10
2021,08,12,12,57,31.20
2021,08,12,12,58,31.20
2021,08,12,12,59,31.20
2021,08,12,13,00,31.20
2021,08,12,13,01,31.30
2021,08,12,13,02,31.40
2021,08,12,13,03,31.50
2021,08,12,13,04,31.60
2021,08,12,13,05,31.70
2021,08,12,13,06,31.80
2021,08,12,13,07,31.90
2021,08,12,13,08,32.10
2021,08,12,13,09,32.20
2021,08,12,13,10,32.30
2021,08,12,13,11,32.40
2021,08,12,13,12,32.50
2021,08,12,13,13,32.60
2021,08,12,13,14,32.70
2021,08,12,13,15,32.80
2021,08,12,13,16,32.80
2021,08,12,13,17,32.80
2021,08,12,13,18,32.80
2021,08,12,13,19,32.70
2021,08,12,13,20,32.60
2021,08,12,13,21,32.60
2021,08,12,13,22,32.40
2021,08,12,13,23,32.40
2021,08,12,13,24,32.40
2021,08,12,13,25,32.50
2021,08,12,13,26,32.60
2021,08,12,13,27,32.60
2021,08,12,13,28,32.70
2021,08,12,13,29,32.70
2021,08,12,13,30,32.80
2021,08,12,13,31,32.90
2021,08,12,13,32,33.00
2021,08,12,13,33,33.10
2021,08,12,13,34,33.20
2021,08,12,13,35,33.30
2021,08,12,13,36,33.30
2021,08,12,13,37,33.30
2021,08,12,13,38,33.30
2021,08,12,13,39,33.30
2021,08,12,13,40,33.40
2021,08,12,13,41,33.50
2021,08,12,13,42,33.50
2021,08,12,13,43,33.60
2021,08,12,13,44,33.50
2021,08,12,13,45,33.50
2021,08,12,13,46,33.50
2021,08,12,13,47,33.40
2021,08,12,13,48,33.40
2021,08,12,13,49,33.40
2021,08,12,13,50,33.40
2021,08,12,13,51,33.40
2021,08,12,13,52,33.50
2021,08,12,13,53,33.60
2021,08,12,13,54,33.60
2021,08,12,13,55,33.60
2021,08,12,13,56,33.60
2021,08,12,13,57,33.70
2021,08,12,13,58,33.70
2021,08,12,13,59,33.60
2021,08,12,14,00,33.60
2021,08,12,14,01,33.60
2021,08,12,14,02,33.60
2021,08,12,14,03,33.50
2021,08,12,14,04,33.50
2021,08,12,14,05,33.50
2021,08,12,14,06,33.60
2021,08,12,14,07,33.60
2021,08,12,14,08,33.70
2021,08,12,14,09,33.80
2021,08,12,14,10,33.90
2021,08,12,14,11,33.90
2021,08,12,14,12,34.00
2021,08,12,14,13,34.00
2021,08,12,14,14,34.10
2021,08,12,14,15,34.10
2021,08,12,14,16,34.00
2021,08,12,14,17,34.00
2021,08,12,14,18,33.90
2021,08,12,14,19,33.80
2021,08,12,14,20,33.80
2021,08,12,14,21,33.70
2021,08,12,14,22,33.80
2021,08,12,14,23,33.80
2021,08,12,14,24,33.90
2021,08,12,14,25,33.90
2021,08,12,14,26,34.00
2021,08,12,14,27,33.90
2021,08,12,14,28,33.80
2021,08,12,14,29,33.70
2021,08,12,14,30,33.60
2021,08,12,14,31,33.50
2021,08,12,14,32,33.40
2021,08,12,14,33,33.40
2021,08,12,14,34,33.30
2021,08,12,14,35,33.30
2021,08,12,14,36,33.30
2021,08,12,14,37,33.30
2021,08,12,14,38,33.30
2021,08,12,14,39,33.20
2021,08,12,14,40,33.20
2021,08,12,14,41,33.20
2021,08,12,14,42,33.20
2021,08,12,14,43,33.20
2021,08,12,14,44,33.20
2021,08,12,14,45,33.30
2021,08,12,14,46,33.40
2021,08,12,14,47,33.60
2021,08,12,14,48,33.80
2021,08,12,14,49,33.90
2021,08,12,14,50,34.00
2021,08,12,14,51,34.20
2021,08,12,14,52,34.30
2021,08,12,14,53,34.50
2021,08,12,14,54,34.60
2021,08,12,14,55,34.70
2021,08,12,14,56,34.80
2021,08,12,14,57,34.80
2021,08,12,14,58,34.80
2021,08,12,14,59,34.80
2021,08,12,15,00,34.90
2021,08,12,15,01,34.90
2021,08,12,15,02,34.90
2021,08,12,15,03,35.00
2021,08,12,15,04,35.20
2021,08,12,15,05,35.30
2021,08,12,15,06,35.30
2021,08,12,15,07,35.30
2021,08,12,15,08,35.30
2021,08,12,15,09,35.30
2021,08,12,15,10,35.30
2021,08,12,15,11,35.20
2021,08,12,15,12,35.30
2021,08,12,15,13,35.30
2021,08,12,15,14,35.30
2021,08,12,15,15,35.30
2021,08,12,15,16,35.20
2021,08,12,15,17,35.20
2021,08,12,15,18,35.20
2021,08,12,15,19,35.20
2021,08,12,15,20,35.20
2021,08,12,15,21,35.20
2021,08,12,15,22,35.20
2021,08,12,15,23,35.20
2021,08,12,15,24,35.20
2021,08,12,15,25,35.20
2021,08,12,15,26,35.30
2021,08,12,15,27,35.30
2021,08,12,15,28,35.30
2021,08,12,15,29,35.30
2021,08,12,15,30,35.30
2021,08,12,15,31,35.30
2021,08,12,15,32,35.30
2021,08,12,15,33,35.20
2021,08,12,15,34,35.30
2021,08,12,15,35,35.20
2021,08,12,15,36,35.20
2021,08,12,15,37,35.20
2021,08,12,15,38,35.10
2021,08,12,15,39,35.10
2021,08,12,15,40,35.00
2021,08,12,15,41,34.90
2021,08,12,15,42,34.90
2021,08,12,15,43,34.80
2021,08,12,15,44,34.80
2021,08,12,15,45,34.70
2021,08,12,15,46,34.70
2021,08,12,15,47,34.50
2021,08,12,15,48,34.40
2021,08,12,15,49,34.20
2021,08,12,15,50,34.00
2021,08,12,15,51,33.70
2021,08,12,15,52,33.50
2021,08,12,15,53,33.20
2021,08,12,15,54,32.90
2021,08,12,15,55,32.70
2021,08,12,15,56,32.50
2021,08,12,15,57,32.30
2021,08,12,15,58,32.10
2021,08,12,15,59,32.00
2021,08,12,16,00,31.80
2021,08,12,16,01,31.60
2021,08,12,16,02,31.40
2021,08,12,16,03,31.20
2021,08,12,16,04,31.10
2021,08,12,16,05,30.90
2021,08,12,16,06,30.80
2021,08,12,16,07,30.70
2021,08,12,16,08,30.60
2021,08,12,16,09,30.50
2021,08,12,16,10,30.40
2021,08,12,16,11,30.30
2021,08,12,16,12,30.30
2021,08,12,16,13,30.20
2021,08,12,16,14,30.20
2021,08,12,16,15,30.20
2021,08,12,16,16,30.20
2021,08,12,16,17,30.20
2021,08,12,16,18,30.20
2021,08,12,16,19,30.10
2021,08,12,16,20,30.10
2021,08,12,16,21,30.10
2021,08,12,16,22,30.10
2021,08,12,16,23,30.10
2021,08,12,16,24,30.20
2021,08,12,16,25,30.20
2021,08,12,16,26,30.30
2021,08,12,16,27,30.40
2021,08,12,16,28,30.50
2021,08,12,16,29,30.60
2021,08,12,16,30,30.70
2021,08,12,16,31,30.80
2021,08,12,16,32,31.00
2021,08,12,16,33,31.10
2021,08,12,16,34,31.20
2021,08,12,16,35,31.40
2021,08,12,16,36,31.50
2021,08,12,16,37,31.60
2021,08,12,16,38,31.80
2021,08,12,16,39,31.90
2021,08,12,16,40,32.10
2021,08,12,16,41,32.20
2021,08,12,16,42,32.30
2021,08,12,16,43,32.40
2021,08,12,16,44,32.40
2021,08,12,16,45,32.40
2021,08,12,16,46,32.30
2021,08,12,16,47,32.30
2021,08,12,16,48,32.30
2021,08,12,16,49,32.30
2021,08,12,16,50,32.30
2021,08,12,16,51,32.20
2021,08,12,16,52,32.20
2021,08,12,16,53,32.20
2021,08,12,16,54,32.20
2021,08,12,16,55,32.20
2021,08,12,16,56,32.10
2021,08,12,16,57,32.10
2021,08,12,16,58,32.10
2021,08,12,16,59,32.00
2021,08,12,17,00,32.00
2021,08,12,17,01,31.90
2021,08,12,17,02,31.90
2021,08,12,17,03,31.90
2021,08,12,17,04,31.90
2021,08,12,17,05,32.00
2021,08,12,17,06,32.00
2021,08,12,17,07,32.00
2021,08,12,17,08,32.10
2021,08,12,17,09,32.10
2021,08,12,17,10,32.20
2021,08,12,17,11,32.20
2021,08,12,17,12,32.30
2021,08,12,17,13,32.30
2021,08,12,17,14,32.30
2021,08,12,17,15,32.30
2021,08,12,17,16,32.30
2021,08,12,17,17,32.30
2021,08,12,17,18,32.30
2021,08,12,17,19,32.30